CAPE
10 0 0 3 9 1 0 0 0 0 0 0 0 0 0 0 0 0 0 0 0 0
0 0 0 0 3 8 0 0 0 0 0 0 0 0 0 0 0 0 0 0 0 0
3 1 3 8 0 0 0 0 0 0 0 0 0 0 0 0 0 0 0 0 0 0
0 1 0 0 2 0 0 0 0 0 0 0 0 0 0 0 0 0 0 0 0 0
0 0 1 1 0 1 0 0 0 0 0 0 0 0 0 0 0 0 0 0 0 0
0 1 0 1 0 1 1 0 0 0 0 0 0 0 0 0 0 0 0 0 0 0
1 0 0 1 0 1 0 1 1 0 0 0 0 0 0 0 0 0 0 0 0 0
3 2 2 0 0 1 0 0 0 0 1 0 0 0 0 0 0 0 0 0 0 0
2 2 2 3 1 0 0 0 1 1 0 0 1 0 0 0 0 0 0 0 0 0
0 3 2 2 3 2 1 0 0 0 0 1 0 0 0 0 0 0 0 0 0 0
0 2 3 1 1 2 2 1 1 0 0 0 0 0 0 0 0 0 0 0 0 0
0 1 1 1 2 2 1 1 1 1 0 0 0 0 0 0 0 0 0 0 0 0
0 0 0 1 2 2 1 1 1 1 1 1 0 0 0 0 0 0 0 0 0 0
0 0 0 0 1 1 1 0 0 1 1 1 1 0 1 1 0 0 0 0 0 0
CIN
-41 0 0 -22 -45 -40 0 0 0 0 0 0 0 0 0 0 0 0 0 0 0 0
0 0 -3 0 -52 -58 0 0 0 0 0 0 0 0 0 0 0 0 0 0 0 0
-15 -19 -17 -11 -1 0 0 0 0 0 0 0 0 0 0 0 0 0 0 0 0 0
0 0 0 0 -6 0 0 0 0 0 0 0 0 0 0 0 0 0 0 0 0 0
0 0 0 0 0 0 0 0 0 0 0 0 0 0 0 0 0 0 0 0 0 0
0 0 -1 0 0 0 0 0 0 0 0 0 0 0 0 0 0 0 0 0 0 0
0 0 0 0 -2 -1 0 0 0 0 0 0 0 0 0 0 0 0 0 0 0 0
0 0 0 0 0 -5 0 0 0 0 0 0 0 0 0 0 0 0 0 0 0 0
0 0 0 0 0 0 0 -2 0 0 0 0 0 0 0 0 -1 0 0 0 0 0
0 0 0 0 0 0 0 0 0 0 0 0 0 -4 0 0 0 0 0 0 0 0
0 0 0 0 0 0 0 0 0 0 0 -12 0 0 0 0 0 0 0 0 0 0
0 0 0 0 0 0 0 0 0 0 0 0 0 0 0 0 0 0 0 0 0 0
0 0 0 0 0 0 0 0 0 0 0 0 0 0 0 0 0 0 0 0 0 0
0 0 0 0 0 0 0 0 0 0 0 0 0 0 0 0 0 0 0 0 0 0
Wind_Speed
23 23 23 22 22 23 23 23 22 22 21 21 23 22 21 20 26 28 29 28 27 29
24 24 26 26 24 23 22 24 24 24 24 23 23 24 22 22 24 30 31 32 30 30
24 24 26 26 26 25 24 24 23 24 24 23 23 25 24 24 25 28 32 33 33 32
22 23 26 29 29 27 26 24 24 23 24 24 22 23 25 24 25 28 31 33 34 34
17 19 22 23 22 21 22 22 23 23 22 23 23 23 25 27 26 29 30 33 35 36
18 21 21 21 19 19 19 18 19 21 24 23 24 24 24 24 25 28 29 30 34 36
18 21 21 19 18 17 17 18 20 21 21 20 19 22 25 25 26 28 30 29 31 33
19 18 18 18 18 17 18 19 18 18 19 18 18 19 19 23 27 29 30 31 30 32
17 18 18 17 17 16 16 15 14 13 13 12 14 15 16 20 25 25 28 29 30 30
18 18 18 17 16 16 15 13 13 11 10 10 12 14 11 12 22 25 29 34 30 29
17 16 15 14 13 16 14 14 12 12 11 9 10 12 10 9 14 19 24 24 22 24
17 16 15 15 16 14 13 12 11 12 12 11 11 11 12 12 15 16 17 23 22 19
20 19 18 18 17 15 14 13 11 11 12 13 13 15 15 13 15 20 23 18 21 22
19 18 19 18 19 18 16 14 13 13 15 16 17 18 18 17 16 17 19 19 21 22
Wind_Direction
254 256 257 257 258 258 256 257 256 251 252 250 244 243 239 240 248 250 252 253 254 256
259 260 262 264 263 262 260 262 258 252 251 253 250 243 240 243 244 251 252 254 255 256
263 265 268 268 266 263 265 262 260 258 254 252 248 246 243 247 248 249 253 255 255 256
266 269 273 274 271 268 266 263 257 253 257 254 248 244 245 244 245 247 252 254 255 257
270 276 281 282 280 274 267 264 262 260 258 260 251 247 250 248 246 247 250 254 255 257
281 281 283 284 286 281 273 269 263 258 260 264 258 255 249 245 248 250 250 253 256 257
280 286 288 285 287 287 282 278 273 268 264 267 257 252 252 253 251 254 254 255 257 258
288 290 292 293 288 287 286 286 284 279 274 271 265 259 253 252 254 255 257 258 259 260
299 299 295 294 294 297 294 294 290 288 276 276 279 271 256 255 258 260 260 260 262 262
300 300 297 297 293 298 299 307 301 304 288 272 276 277 271 262 261 263 265 263 264 267
304 298 302 305 304 302 302 306 308 317 310 302 295 296 290 285 272 272 271 269 270 269
300 299 305 309 303 309 309 310 320 321 326 316 310 313 299 290 287 284 281 272 273 277
292 297 299 298 298 307 298 310 318 325 326 321 317 304 300 303 294 280 275 286 283 283
302 301 299 295 289 293 296 306 304 310 314 314 305 299 301 299 302 299 293 292 289 291